Вернуться в каталог

USA 164

АктивенВоенныеGEO
NORAD 27168·PAYLOAD·🇺🇸 United States

Запущен Jan 14, 2002 с Cape Canaveral Space Force Station

Loading…

TLE

СвежийSource: Space-Track

Эпоха: Sep 13, 2026, 23:56 UTC

1 27168U 02001A   26256.99790233  .00000090  00000-0  00000-0 0  9999
2 27168  11.2867  21.3478 0098688  10.2951 339.5665  1.00268653 33849

Отслеживайте USA 164 в реальном времени с AllMySat

Download on the App Store